| time (UTC) | temp C | wind direction | speed KPH | gust KPH | rain 1hr cm | rain 24hr cm | rain mn cm | humidity % | barometer mb |
| 20260504042548 | 8 | 237 | 4.8 | 11.3 | 0.00 | 0.00 | 0.00 | 66 | 1005.7 |
| 20260504042048 | 8 | 238 | 6.4 | 11.3 | 0.00 | 0.00 | 0.00 | 65 | 1005.7 |
| 20260504041556 | 8 | 250 | 4.8 | 20.9 | 0.00 | 0.00 | 0.00 | 65 | 1005.8 |
| 20260504041049 | 8 | 196 | 9.7 | 20.9 | 0.00 | 0.00 | 0.00 | 65 | 1005.8 |
| 20260504040549 | 8 | 205 | 4.8 | 17.7 | 0.00 | 0.00 | 0.00 | 65 | 1005.7 |
| 20260504040055 | 8 | 226 | 9.7 | 17.7 | 0.00 | 0.00 | 0.00 | 64 | 1005.7 |
| 20260504035549 | 8 | 208 | 6.4 | 14.5 | 0.00 | 0.00 | 0.00 | 64 | 1005.7 |
| 20260504035049 | 8 | 197 | 6.4 | 17.7 | 0.00 | 0.00 | 0.00 | 63 | 1005.7 |
| 20260504034556 | 8 | 219 | 8.0 | 17.7 | 0.00 | 0.00 | 0.00 | 63 | 1005.7 |
| 20260504034053 | 9 | 250 | 8.0 | 16.1 | 0.00 | 0.00 | 0.00 | 62 | 1005.7 |
| 20260504033549 | 9 | 254 | 8.0 | 16.1 | 0.00 | 0.00 | 0.00 | 62 | 1005.6 |
| 20260504033049 | 9 | 218 | 6.4 | 16.1 | 0.00 | 0.00 | 0.00 | 62 | 1005.7 |
| 20260504032549 | 9 | 238 | 6.4 | 16.1 | 0.00 | 0.00 | 0.00 | 61 | 1005.7 |
| 20260504032049 | 9 | 231 | 6.4 | 16.1 | 0.00 | 0.00 | 0.00 | 61 | 1005.7 |
| 20260504031552 | 9 | 208 | 6.4 | 16.1 | 0.00 | 0.00 | 0.00 | 61 | 1005.8 |
| 20260504031048 | 9 | 200 | 6.4 | 12.9 | 0.00 | 0.00 | 0.00 | 61 | 1005.9 |
| 20260504030552 | 9 | 233 | 6.4 | 12.9 | 0.00 | 0.00 | 0.00 | 61 | 1005.8 |
| 20260504030051 | 9 | 231 | 4.8 | 17.7 | 0.00 | 0.00 | 0.00 | 60 | 1005.9 |
| 20260504025547 | 9 | 257 | 4.8 | 17.7 | 0.00 | 0.00 | 0.00 | 60 | 1005.9 |
| 20260504025048 | 9 | 238 | 8.0 | 22.5 | 0.00 | 0.00 | 0.00 | 60 | 1006.0 |
| 20260504024556 | 9 | 265 | 11.3 | 24.1 | 0.00 | 0.00 | 0.00 | 60 | 1006.1 |
| 20260504024050 | 9 | 281 | 9.7 | 24.1 | 0.00 | 0.00 | 0.00 | 60 | 1006.1 |
| 20260504023548 | 10 | 231 | 8.0 | 19.3 | 0.00 | 0.00 | 0.00 | 59 | 1006.2 |
| 20260504023052 | 10 | 283 | 8.0 | 24.1 | 0.00 | 0.00 | 0.00 | 58 | 1006.2 |
| 20260504022550 | 10 | 236 | 11.3 | 24.1 | 0.00 | 0.00 | 0.00 | 58 | 1006.1 |
| 20260504022049 | 10 | 241 | 4.8 | 17.7 | 0.00 | 0.00 | 0.00 | 57 | 1006.3 |
| 20260504021554 | 10 | 260 | 8.0 | 19.3 | 0.00 | 0.00 | 0.00 | 56 | 1006.4 |
| 20260504021052 | 10 | 239 | 11.3 | 19.3 | 0.00 | 0.00 | 0.00 | 56 | 1006.4 |
| 20260504020552 | 10 | 264 | 9.7 | 24.1 | 0.00 | 0.00 | 0.00 | 55 | 1006.4 |
| 20260504020122 | 10 | 245 | 9.7 | 27.4 | 0.00 | 0.00 | 0.00 | 54 | 1006.2 |
| 20260504015549 | 10 | 207 | 9.7 | 27.4 | 0.00 | 0.00 | 0.00 | 53 | 1006.1 |
| 20260504015048 | 10 | 210 | 11.3 | 27.4 | 0.00 | 0.00 | 0.00 | 52 | 1006.1 |
| 20260504014559 | 10 | 221 | 8.0 | 20.9 | 0.00 | 0.00 | 0.00 | 51 | 1006.1 |
| 20260504014049 | 10 | 213 | 9.7 | 20.9 | 0.00 | 0.00 | 0.00 | 50 | 1005.9 |
| 20260504013548 | 10 | 254 | 11.3 | 20.9 | 0.00 | 0.00 | 0.00 | 49 | 1005.9 |
| 20260504013111 | 10 | 153 | 9.7 | 17.7 | 0.00 | 0.00 | 0.00 | 49 | 1005.9 |
| 20260504012547 | 10 | 249 | 8.0 | 14.5 | 0.00 | 0.00 | 0.00 | 48 | 1005.9 |
| 20260504012049 | 10 | 212 | 4.8 | 14.5 | 0.00 | 0.00 | 0.00 | 47 | 1005.9 |
| 20260504011554 | 10 | 231 | 4.8 | 14.5 | 0.00 | 0.00 | 0.00 | 46 | 1005.8 |
| 20260504011048 | 10 | 212 | 4.8 | 11.3 | 0.00 | 0.00 | 0.00 | 46 | 1005.9 |
| 20260504010548 | 10 | 243 | 6.4 | 11.3 | 0.00 | 0.00 | 0.00 | 45 | 1005.8 |
| 20260504005549 | 11 | 211 | 6.4 | 17.7 | 0.00 | 0.00 | 0.00 | 45 | 1005.8 |
| 20260504005049 | 11 | 257 | 8.0 | 17.7 | 0.00 | 0.00 | 0.00 | 44 | 1005.7 |
| 20260504004626 | 11 | 265 | 4.8 | 11.3 | 0.00 | 0.00 | 0.00 | 44 | 1005.7 |
| 20260504004049 | 11 | 260 | 4.8 | 9.7 | 0.00 | 0.00 | 0.00 | 44 | 1005.6 |
| 20260504003548 | 11 | 271 | 4.8 | 14.5 | 0.00 | 0.00 | 0.00 | 44 | 1005.7 |
| 20260504003051 | 11 | 227 | 4.8 | 17.7 | 0.00 | 0.00 | 0.00 | 45 | 1005.7 |
| 20260504002548 | 11 | 257 | 8.0 | 17.7 | 0.00 | 0.00 | 0.00 | 44 | 1005.7 |
| 20260504002048 | 11 | 284 | 8.0 | 22.5 | 0.00 | 0.00 | 0.00 | 44 | 1005.7 |
| 20260504001555 | 11 | 285 | 8.0 | 24.1 | 0.00 | 0.00 | 0.00 | 44 | 1005.7 |
| 20260504001050 | 11 | 216 | 11.3 | 24.1 | 0.00 | 0.00 | 0.00 | 43 | 1005.7 |
| 20260504000548 | 11 | 257 | 14.5 | 22.5 | 0.00 | 0.00 | 0.00 | 42 | 1005.5 |
| 20260504000106 | 11 | 209 | 9.7 | 22.5 | 0.00 | 0.00 | 0.00 | 40 | 1005.6 |
| 20260503235551 | 11 | 260 | 4.8 | 14.5 | 0.00 | 0.00 | 0.00 | 39 | 1005.5 |
| 20260503235049 | 11 | 236 | 4.8 | 19.3 | 0.00 | 0.00 | 0.00 | 39 | 1005.6 |
| 20260503234549 | 12 | 219 | 6.4 | 22.5 | 0.00 | 0.00 | 0.00 | 38 | 1005.6 |
| 20260503234048 | 12 | 215 | 14.5 | 22.5 | 0.00 | 0.00 | 0.00 | 38 | 1005.6 |
| 20260503233549 | 12 | 244 | 8.0 | 19.3 | 0.00 | 0.00 | 0.00 | 38 | 1005.6 |
| 20260503233052 | 12 | 240 | 9.7 | 19.3 | 0.00 | 0.00 | 0.00 | 38 | 1005.7 |
| 20260503232548 | 12 | 211 | 9.7 | 19.3 | 0.00 | 0.00 | 0.00 | 37 | 1005.6 |
| 20260503232048 | 12 | 229 | 9.7 | 19.3 | 0.00 | 0.00 | 0.00 | 37 | 1005.5 |
| 20260503231556 | 12 | 269 | 8.0 | 19.3 | 0.00 | 0.00 | 0.00 | 36 | 1005.6 |
| 20260503231049 | 12 | 252 | 9.7 | 19.3 | 0.00 | 0.00 | 0.00 | 36 | 1005.5 |
| 20260503230550 | 12 | 258 | 8.0 | 22.5 | 0.00 | 0.00 | 0.00 | 35 | 1005.4 |
| 20260503230052 | 12 | 242 | 9.7 | 22.5 | 0.00 | 0.00 | 0.00 | 35 | 1005.5 |
| 20260503225548 | 12 | 278 | 9.7 | 19.3 | 0.00 | 0.00 | 0.00 | 35 | 1005.5 |
| 20260503225048 | 12 | 248 | 9.7 | 19.3 | 0.00 | 0.00 | 0.00 | 35 | 1005.5 |
| 20260503224558 | 12 | 308 | 4.8 | 19.3 | 0.00 | 0.00 | 0.00 | 34 | 1005.5 |
| 20260503224048 | 12 | 189 | 8.0 | 17.7 | 0.00 | 0.00 | 0.00 | 33 | 1005.4 |
| 20260503223547 | 13 | 245 | 11.3 | 17.7 | 0.00 | 0.00 | 0.00 | 32 | 1005.5 |
| 20260503223054 | 13 | 283 | 8.0 | 17.7 | 0.00 | 0.00 | 0.00 | 32 | 1005.5 |
| 20260503222548 | 13 | 232 | 8.0 | 17.7 | 0.00 | 0.00 | 0.00 | 31 | 1005.5 |
| 20260503222051 | 13 | 254 | 6.4 | 19.3 | 0.00 | 0.00 | 0.00 | 31 | 1005.4 |
| 20260503221601 | 13 | 288 | 9.7 | 19.3 | 0.00 | 0.00 | 0.00 | 30 | 1005.5 |
| 20260503221053 | 13 | 256 | 12.9 | 19.3 | 0.00 | 0.00 | 0.00 | 29 | 1005.5 |
| 20260503220549 | 13 | 281 | 9.7 | 19.3 | 0.00 | 0.00 | 0.00 | 30 | 1005.5 |
| 20260503220055 | 13 | 271 | 9.7 | 24.1 | 0.00 | 0.00 | 0.00 | 29 | 1005.5 |
| 20260503215548 | 13 | 227 | 12.9 | 24.1 | 0.00 | 0.00 | 0.00 | 27 | 1005.5 |
| 20260503215048 | 13 | 231 | 8.0 | 19.3 | 0.00 | 0.00 | 0.00 | 28 | 1005.4 |
| 20260503214551 | 13 | 249 | 9.7 | 19.3 | 0.00 | 0.00 | 0.00 | 27 | 1005.4 |
| 20260503214144 | 13 | 288 | 9.7 | 22.5 | 0.00 | 0.00 | 0.00 | 28 | 1005.6 |
| 20260503213551 | 13 | 291 | 9.7 | 25.7 | 0.00 | 0.00 | 0.00 | 28 | 1005.4 |
| 20260503213054 | 13 | 289 | 16.1 | 25.7 | 0.00 | 0.00 | 0.00 | 27 | 1005.5 |
| 20260503212550 | 13 | 303 | 14.5 | 25.7 | 0.00 | 0.00 | 0.00 | 28 | 1005.6 |
| 20260503212049 | 13 | 273 | 8.0 | 16.1 | 0.00 | 0.00 | 0.00 | 28 | 1005.4 |
| 20260503211556 | 13 | 257 | 4.8 | 24.1 | 0.00 | 0.00 | 0.00 | 29 | 1005.4 |
| 20260503211053 | 12 | 280 | 8.0 | 25.7 | 0.00 | 0.00 | 0.00 | 30 | 1005.5 |
| 20260503210550 | 12 | 248 | 14.5 | 25.7 | 0.00 | 0.00 | 0.00 | 29 | 1005.6 |
| 20260503210053 | 13 | 246 | 8.0 | 22.5 | 0.00 | 0.00 | 0.00 | 30 | 1005.6 |
| 20260503205550 | 13 | 263 | 12.9 | 25.7 | 0.00 | 0.00 | 0.00 | 29 | 1005.6 |
| 20260503205051 | 13 | 217 | 12.9 | 25.7 | 0.00 | 0.00 | 0.00 | 28 | 1005.5 |
| 20260503204619 | 12 | 152 | 8.0 | 24.1 | 0.00 | 0.00 | 0.00 | 29 | 1005.6 |
| 20260503204050 | 12 | 261 | 9.7 | 24.1 | 0.00 | 0.00 | 0.00 | 29 | 1005.6 |
| 20260503203549 | 13 | 264 | 12.9 | 24.1 | 0.00 | 0.00 | 0.00 | 29 | 1005.8 |
| 20260503203100 | 13 | 253 | 11.3 | 29.0 | 0.00 | 0.00 | 0.00 | 28 | 1005.7 |
| 20260503202553 | 13 | 271 | 12.9 | 29.0 | 0.00 | 0.00 | 0.00 | 29 | 1005.8 |
| 20260503202050 | 13 | 199 | 14.5 | 29.0 | 0.00 | 0.00 | 0.00 | 29 | 1005.8 |
| 20260503201552 | 13 | 247 | 8.0 | 29.0 | 0.00 | 0.00 | 0.00 | 29 | 1005.9 |
| 20260503201048 | 13 | 264 | 14.5 | 27.4 | 0.00 | 0.00 | 0.00 | 29 | 1006.0 |
| 20260503200548 | 12 | 284 | 12.9 | 27.4 | 0.00 | 0.00 | 0.00 | 30 | 1005.9 |
| 20260503200054 | 12 | 276 | 8.0 | 37.0 | 0.00 | 0.00 | 0.00 | 30 | 1006.0 |
| 20260503195547 | 12 | 258 | 17.7 | 37.0 | 0.00 | 0.00 | 0.00 | 29 | 1006.3 |
| 20260503195048 | 13 | 185 | 12.9 | 25.7 | 0.00 | 0.00 | 0.00 | 28 | 1006.2 |
| 20260503194555 | 13 | 257 | 12.9 | 25.7 | 0.00 | 0.00 | 0.00 | 28 | 1006.2 |
| 20260503194048 | 12 | 252 | 16.1 | 29.0 | 0.00 | 0.00 | 0.00 | 29 | 1006.5 |
| 20260503193548 | 12 | 257 | 8.0 | 32.2 | 0.00 | 0.00 | 0.00 | 30 | 1006.4 |
| 20260503193110 | 12 | 264 | 17.7 | 32.2 | 0.00 | 0.00 | 0.00 | 31 | 1006.7 |
| 20260503192547 | 12 | 200 | 8.0 | 29.0 | 0.00 | 0.00 | 0.00 | 34 | 1006.7 |
| 20260503192048 | 11 | 273 | 12.9 | 29.0 | 0.00 | 0.00 | 0.00 | 31 | 1006.9 |
| 20260503191610 | 11 | 110 | 9.7 | 24.1 | 0.00 | 0.00 | 0.00 | 31 | 1007.0 |
| 20260503191048 | 11 | 274 | 11.3 | 30.6 | 0.00 | 0.00 | 0.00 | 30 | 1007.1 |
| 20260503190548 | 12 | 278 | 14.5 | 30.6 | 0.00 | 0.00 | 0.00 | 30 | 1007.3 |
| 20260503190058 | 12 | 262 | 16.1 | 30.6 | 0.00 | 0.00 | 0.00 | 29 | 1007.1 |
| 20260503185549 | 12 | 234 | 9.7 | 30.6 | 0.00 | 0.00 | 0.00 | 31 | 1007.2 |
| 20260503185048 | 12 | 225 | 11.3 | 30.6 | 0.00 | 0.00 | 0.00 | 31 | 1007.2 |
| 20260503184553 | 12 | 238 | 9.7 | 27.4 | 0.00 | 0.00 | 0.00 | 30 | 1007.3 |
| 20260503184050 | 12 | 239 | 14.5 | 27.4 | 0.00 | 0.00 | 0.00 | 30 | 1007.3 |
| 20260503183549 | 11 | 240 | 12.9 | 27.4 | 0.00 | 0.00 | 0.00 | 32 | 1007.4 |
| 20260503183055 | 12 | 245 | 11.3 | 24.1 | 0.00 | 0.00 | 0.00 | 31 | 1007.6 |
| 20260503182547 | 12 | 305 | 12.9 | 22.5 | 0.00 | 0.00 | 0.00 | 32 | 1007.5 |
| 20260503182050 | 12 | 293 | 8.0 | 20.9 | 0.00 | 0.00 | 0.00 | 33 | 1007.5 |
| 20260503181554 | 11 | 212 | 11.3 | 25.7 | 0.00 | 0.00 | 0.00 | 31 | 1007.7 |
| 20260503181048 | 12 | 245 | 12.9 | 25.7 | 0.00 | 0.00 | 0.00 | 31 | 1007.7 |
| 20260503180550 | 12 | 250 | 11.3 | 22.5 | 0.00 | 0.00 | 0.00 | 33 | 1007.7 |
| 20260503180059 | 11 | 219 | 8.0 | 24.1 | 0.00 | 0.00 | 0.00 | 34 | 1007.8 |
| 20260503175549 | 11 | 222 | 12.9 | 32.2 | 0.00 | 0.00 | 0.00 | 33 | 1008.0 |
| 20260503175048 | 11 | 238 | 14.5 | 32.2 | 0.00 | 0.00 | 0.00 | 33 | 1008.1 |
| 20260503174556 | 11 | 246 | 14.5 | 32.2 | 0.00 | 0.00 | 0.00 | 32 | 1008.1 |
| 20260503174048 | 11 | 227 | 12.9 | 25.7 | 0.00 | 0.00 | 0.00 | 32 | 1008.2 |
| 20260503173548 | 11 | 269 | 11.3 | 27.4 | 0.00 | 0.00 | 0.00 | 34 | 1008.2 |
| 20260503173051 | 11 | 197 | 12.9 | 27.4 | 0.00 | 0.00 | 0.00 | 34 | 1008.3 |
| 20260503172547 | 11 | 268 | 8.0 | 25.7 | 0.00 | 0.00 | 0.00 | 34 | 1008.4 |
| 20260503172048 | 11 | 254 | 12.9 | 25.7 | 0.00 | 0.00 | 0.00 | 33 | 1008.6 |
| 20260503171553 | 11 | 245 | 8.0 | 24.1 | 0.00 | 0.00 | 0.00 | 37 | 1008.6 |
| 20260503171048 | 11 | 216 | 9.7 | 24.1 | 0.00 | 0.00 | 0.00 | 35 | 1008.7 |
| 20260503170548 | 11 | 151 | 9.7 | 27.4 | 0.00 | 0.00 | 0.00 | 33 | 1008.6 |
| 20260503170106 | 11 | 194 | 11.3 | 27.4 | 0.00 | 0.00 | 0.00 | 35 | 1008.9 |
| 20260503160108 | 9 | 278 | 11.3 | 20.9 | 0.00 | 0.00 | 0.00 | 37 | 1009.7 |
| 20260503150549 | 8 | 297 | 8.0 | 19.3 | 0.00 | 0.00 | 0.00 | 41 | 1010.3 |
| 20260503131050 | 6 | 290 | 6.4 | 14.5 | 0.00 | 0.00 | 0.00 | 57 | 1011.4 |
| 20260503130551 | 6 | 286 | 6.4 | 12.9 | 0.00 | 0.00 | 0.00 | 57 | 1011.5 |
| 20260503110546 | 2 | 243 | 1.6 | 3.2 | 0.00 | 0.00 | 0.00 | 73 | 1011.3 |
| 20260503081554 | 3 | 254 | 0.0 | 1.6 | 0.00 | 0.00 | 0.00 | 69 | 1011.3 |
| 20260503081048 | 3 | 240 | 1.6 | 3.2 | 0.00 | 0.00 | 0.00 | 69 | 1011.3 |
| 20260503080551 | 3 | 255 | 1.6 | 3.2 | 0.00 | 0.00 | 0.00 | 69 | 1011.3 |
| 20260503072548 | 3 | 280 | 1.6 | 6.4 | 0.00 | 0.00 | 0.00 | 67 | 1011.5 |
| 20260503072048 | 3 | 268 | 3.2 | 6.4 | 0.00 | 0.00 | 0.00 | 67 | 1011.4 |
| 20260503071611 | 3 | 260 | 1.6 | 4.8 | 0.00 | 0.00 | 0.00 | 67 | 1011.5 |
| 20260503071048 | 3 | 275 | 1.6 | 3.2 | 0.00 | 0.00 | 0.00 | 67 | 1011.4 |
| 20260503070548 | 3 | 262 | 1.6 | 3.2 | 0.00 | 0.00 | 0.00 | 67 | 1011.4 |
| 20260503055048 | 3 | 253 | 1.6 | 6.4 | 0.00 | 0.00 | 0.00 | 66 | 1011.9 |
| 20260503054609 | 3 | 269 | 1.6 | 6.4 | 0.00 | 0.00 | 0.00 | 66 | 1011.8 |
| 20260503054052 | 3 | 256 | 1.6 | 4.8 | 0.00 | 0.00 | 0.00 | 65 | 1011.9 |
| 20260503053549 | 3 | 246 | 1.6 | 4.8 | 0.00 | 0.00 | 0.00 | 65 | 1011.8 |
| 20260503053058 | 3 | 255 | 1.6 | 4.8 | 0.00 | 0.00 | 0.00 | 65 | 1011.9 |
| 20260503052548 | 3 | 283 | 1.6 | 4.8 | 0.00 | 0.00 | 0.00 | 65 | 1011.9 |
| 20260503052051 | 3 | 248 | 1.6 | 4.8 | 0.00 | 0.00 | 0.00 | 65 | 1012.0 |
| 20260503051552 | 3 | 246 | 1.6 | 4.8 | 0.00 | 0.00 | 0.00 | 66 | 1012.0 |
| 20260503051048 | 3 | 245 | 1.6 | 4.8 | 0.00 | 0.00 | 0.00 | 66 | 1012.0 |
| 20260503050548 | 3 | 252 | 1.6 | 4.8 | 0.00 | 0.00 | 0.00 | 66 | 1012.0 |
| 20260503050058 | 3 | 248 | 1.6 | 4.8 | 0.00 | 0.00 | 0.00 | 66 | 1012.1 |
| 20260503045548 | 3 | 259 | 3.2 | 4.8 | 0.00 | 0.00 | 0.00 | 66 | 1012.1 |
| 20260503045047 | 3 | 252 | 1.6 | 4.8 | 0.00 | 0.00 | 0.00 | 65 | 1012.2 |
| 20260503044554 | 3 | 270 | 1.6 | 4.8 | 0.00 | 0.00 | 0.00 | 66 | 1012.2 |
| 20260503044048 | 3 | 267 | 1.6 | 4.8 | 0.00 | 0.00 | 0.00 | 66 | 1012.2 |
| 20260503043548 | 3 | 277 | 1.6 | 4.8 | 0.00 | 0.00 | 0.00 | 66 | 1012.2 |
| 20260503043058 | 3 | 282 | 1.6 | 3.2 | 0.00 | 0.00 | 0.00 | 67 | 1012.2 |